Location: Unspecified
(52.0000°N, 4.4000°E)
Time: 01:18:16
(UTC+00:00)

BlueWalker 3 - Pass Details

Date: 14 May 2025
Orbit: 460 x 472 km, 53.2° (Epoch: 23 June)

Event Time Altitude Azimuth Distance (km) Brightness Sun altitude
Rises 23:43:10 0° 286° (WNW) 2,502 5.7 -19.1°
Reaches altitude 10° 23:45:38 10° 271° (W) 1,625 4.5 -19.1°
Enters shadow 23:46:31 15° 260° (W) 1,363 4.0 -19.1°
